�������l�o���
Date,Time,MP-1(��Sv/h),MP-2(��Sv/h),MP-3(��Sv/h),MP-4(��Sv/h),MP-5(��Sv/h),MP-6(��Sv/h),MP-7(��Sv/h),MP-8(��Sv/h),����,����(m/s),���J
2016/09/23,00:00,1.088,1.798,1.300,1.982,1.326,0.584,1.031,0.955,�k�k��,10.2,��
2016/09/23,00:10,1.089,1.798,1.303,1.980,1.327,0.583,1.030,0.955,�k��,9.4,��
2016/09/23,00:20,1.089,1.801,1.305,1.982,1.331,0.584,1.029,0.958,�k��,7.8,��
2016/09/23,00:30,1.089,1.802,1.306,1.982,1.329,0.586,1.028,0.956,�k��,7.1,��
2016/09/23,00:40,1.089,1.804,1.305,1.985,1.332,0.584,1.031,0.958,�k��,7.7,��
2016/09/23,00:50,1.091,1.804,1.304,1.986,1.331,0.586,1.029,0.956,�k��,7.5,��
2016/09/23,01:00,1.092,1.802,1.305,1.984,1.335,0.586,1.031,0.957,�k��,7.5,��
2016/09/23,01:10,1.092,1.803,1.307,1.988,1.338,0.584,1.031,0.960,�k��,7.1,��
2016/09/23,01:20,1.091,1.805,1.309,1.987,1.339,0.584,1.034,0.958,�k��,7.1,��
2016/09/23,01:30,1.093,1.807,1.309,1.988,1.338,0.586,1.033,0.960,�k��,7.4,��
2016/09/23,01:40,1.093,1.805,1.311,1.991,1.340,0.586,1.032,0.958,�k��,7.2,��
2016/09/23,01:50,1.094,1.807,1.312,1.988,1.341,0.586,1.033,0.959,�k��,7.8,��
2016/09/23,02:00,1.092,1.806,1.309,1.990,1.341,0.587,1.030,0.961,�k��,7.1,��
2016/09/23,02:10,1.095,1.808,1.311,1.990,1.340,0.583,1.034,0.960,�k��,5.8,��
2016/09/23,02:20,1.093,1.808,1.311,1.992,1.340,0.587,1.035,0.962,�k��,5.3,��
2016/09/23,02:30,1.095,1.809,1.311,1.993,1.345,0.586,1.033,0.958,�k��,4.1,��
2016/09/23,02:40,1.095,1.810,1.311,1.992,1.342,0.585,1.034,0.958,���k��,3.2,��
2016/09/23,02:50,1.095,1.814,1.314,1.991,1.345,0.586,1.034,0.957,��,2.4,��
2016/09/23,03:00,1.094,1.811,1.312,1.996,1.344,0.587,1.035,0.960,��,1.7,��
2016/09/23,03:10,1.096,1.811,1.314,1.995,1.346,0.588,1.036,0.960,�쐼,1.4,��
2016/09/23,03:20,1.096,1.810,1.313,1.995,1.346,0.587,1.035,0.961,��,2.1,��
2016/09/23,03:30,1.098,1.812,1.314,1.996,1.345,0.588,1.035,0.961,��,3.0,��
2016/09/23,03:40,1.097,1.812,1.311,1.994,1.349,0.589,1.036,0.960,��쓌,3.1,��
2016/09/23,03:50,1.098,1.814,1.316,1.997,1.350,0.587,1.036,0.960,��쓌,2.0,��
2016/09/23,04:00,1.098,1.813,1.316,1.997,1.348,0.588,1.036,0.961,��,2.3,��
2016/09/23,04:10,1.099,1.812,1.316,1.997,1.349,0.588,1.036,0.961,��쐼,2.3,��
2016/09/23,04:20,1.099,1.813,1.313,1.997,1.351,0.589,1.036,0.961,��쐼,1.7,��
2016/09/23,04:30,1.098,1.812,1.316,1.999,1.351,0.588,1.037,0.963,�쐼,1.9,��
2016/09/23,04:40,1.100,1.811,1.317,1.995,1.348,0.587,1.037,0.961,��쐼,2.9,��
2016/09/23,04:50,1.097,1.814,1.316,1.999,1.352,0.588,1.038,0.963,�쐼,2.3,��
2016/09/23,05:00,1.100,1.813,1.316,1.996,1.351,0.589,1.036,0.963,�쐼,1.4,��
2016/09/23,05:10,1.098,1.812,1.315,1.998,1.353,0.587,1.036,0.960,�쐼,0.8,��
2016/09/23,05:20,1.098,1.813,1.313,1.998,1.354,0.588,1.038,0.960,�쐼,0.7,��
2016/09/23,05:30,1.096,1.815,1.317,1.998,1.353,0.587,1.038,0.964,��,0.6,��
2016/09/23,05:40,1.099,1.814,1.316,1.998,1.350,0.587,1.037,0.962,-,CALM,��
2016/09/23,05:50,1.098,1.812,1.315,2.000,1.351,0.587,1.037,0.962,-,CALM,��
2016/09/23,06:00,1.098,1.813,1.314,2.001,1.352,0.587,1.038,0.962,�k�k��,1.4,��
2016/09/23,06:10,1.098,1.811,1.315,2.002,1.354,0.589,1.037,0.961,�k�k��,2.6,��
2016/09/23,06:20,1.098,1.816,1.315,1.998,1.354,0.589,1.037,0.961,�k�k��,2.5,��
2016/09/23,06:30,1.096,1.814,1.315,2.000,1.354,0.588,1.038,0.962,�k�k��,2.8,��
2016/09/23,06:40,1.097,1.812,1.314,2.000,1.355,0.588,1.039,0.963,�k�k��,3.8,�L
2016/09/23,06:50,1.099,1.813,1.318,1.999,1.352,0.588,1.036,0.961,�k��,3.9,�L
2016/09/23,07:00,1.097,1.811,1.315,2.001,1.354,0.589,1.036,0.962,�k��,3.9,�L
2016/09/23,07:10,1.098,1.814,1.312,1.998,1.353,0.588,1.037,0.960,�k��,3.8,�L
2016/09/23,07:20,1.097,1.812,1.317,1.999,1.351,0.588,1.035,0.961,�k�k��,3.1,��
2016/09/23,07:30,1.099,1.814,1.315,1.999,1.352,0.589,1.037,0.960,�k�k��,3.1,��
2016/09/23,07:40,1.096,1.811,1.315,2.001,1.352,0.590,1.036,0.961,�k,2.1,��
2016/09/23,07:50,1.097,1.812,1.315,2.002,1.353,0.587,1.037,0.961,�k�k��,3.1,��
2016/09/23,08:00,1.098,1.813,1.315,2.001,1.351,0.588,1.037,0.962,�k�k��,2.7,��
2016/09/23,08:10,1.096,1.810,1.316,2.002,1.354,0.588,1.039,0.961,�k�k��,2.7,��
2016/09/23,08:20,1.095,1.814,1.315,2.004,1.355,0.587,1.037,0.961,�k,2.6,�L
2016/09/23,08:30,1.094,1.811,1.319,1.999,1.351,0.588,1.037,0.960,�k�k��,2.4,�L
2016/09/23,08:40,1.095,1.807,1.314,2.000,1.353,0.588,1.035,0.960,�k�k��,1.7,�L
2016/09/23,08:50,1.096,1.810,1.312,2.000,1.353,0.589,1.038,0.961,�k,2.4,��
2016/09/23,09:00,1.093,1.812,1.313,2.001,1.352,0.589,1.039,0.959,�k,2.6,��
2016/09/23,09:10,1.094,1.808,1.314,2.003,1.352,0.588,1.035,0.960,�k,1.9,��
2016/09/23,09:20,1.091,1.811,1.316,2.001,1.355,0.587,1.036,0.958,�k,2.1,��
2016/09/23,09:30,1.095,1.811,1.313,2.001,1.355,0.587,1.038,0.960,�k,2.2,��
2016/09/23,09:40,1.094,1.813,1.314,2.003,1.357,0.586,1.038,0.961,�k,1.7,��
2016/09/23,09:50,1.096,1.810,1.313,2.000,1.354,0.588,1.039,0.962,�k,1.5,��
2016/09/23,10:00,1.093,1.810,1.311,2.000,1.354,0.585,1.038,0.960,�k,1.4,�L
2016/09/23,10:10,1.095,1.813,1.312,2.000,1.355,0.588,1.039,0.960,���k��,1.8,��
2016/09/23,10:20,1.094,1.811,1.310,2.000,1.353,0.589,1.039,0.963,�k��,1.8,��
2016/09/23,10:30,1.096,1.812,1.311,2.004,1.355,0.586,1.042,0.962,�k��,2.0,��
2016/09/23,10:40,1.095,1.815,1.312,2.002,1.354,0.587,1.040,0.960,�k��,2.2,��
2016/09/23,10:50,1.096,1.816,1.312,2.003,1.356,0.585,1.039,0.962,���k��,2.3,��
2016/09/23,11:00,1.094,1.818,1.312,2.003,1.358,0.587,1.040,0.961,��,1.9,��
2016/09/23,11:10,1.096,1.814,1.312,2.005,1.358,0.587,1.043,0.961,��,2.2,��
2016/09/23,11:20,1.096,1.815,1.310,2.005,1.358,0.586,1.040,0.961,��,2.8,��
2016/09/23,11:30,1.097,1.818,1.313,2.006,1.359,0.588,1.041,0.963,���쓌,2.6,��
2016/09/23,11:40,1.098,1.816,1.313,2.006,1.360,0.587,1.039,0.964,���쓌,3.1,��
2016/09/23,11:50,1.102,1.818,1.312,2.007,1.359,0.587,1.042,0.963,�쓌,3.5,��
2016/09/23,12:00,1.100,1.817,1.312,2.004,1.361,0.588,1.042,0.965,���쓌,3.9,��
2016/09/23,12:10,1.098,1.822,1.315,2.004,1.361,0.588,1.042,0.963,�쓌,4.1,��
2016/09/23,12:20,1.099,1.818,1.316,2.006,1.361,0.588,1.041,0.964,�쓌,2.3,��
2016/09/23,12:30,1.100,1.820,1.315,2.007,1.364,0.587,1.044,0.963,�쓌,2.0,��
2016/09/23,12:40,1.102,1.818,1.318,2.005,1.366,0.589,1.043,0.965,�쓌,1.2,��
2016/09/23,12:50,1.099,1.819,1.315,2.007,1.363,0.586,1.043,0.965,��쓌,1.2,��
2016/09/23,13:00,1.099,1.820,1.315,2.009,1.366,0.587,1.041,0.965,�쓌,1.1,��
2016/09/23,13:10,1.101,1.821,1.315,2.010,1.365,0.589,1.042,0.966,�쐼,0.9,��
2016/09/23,13:20,1.101,1.822,1.316,2.012,1.367,0.588,1.042,0.965,�쐼,1.4,��
2016/09/23,13:30,1.101,1.821,1.316,2.009,1.367,0.589,1.044,0.965,�쓌,1.3,��
2016/09/23,13:40,1.100,1.824,1.316,2.010,1.365,0.588,1.044,0.964,�쐼,1.3,��
2016/09/23,13:50,1.100,1.824,1.315,2.012,1.368,0.588,1.045,0.966,���쓌,1.2,��
2016/09/23,14:00,1.100,1.822,1.316,2.012,1.366,0.590,1.045,0.964,���쓌,1.2,��
2016/09/23,14:10,1.103,1.827,1.317,2.012,1.371,0.590,1.044,0.966,�쓌,1.0,��
2016/09/23,14:20,1.106,1.826,1.318,2.013,1.368,0.590,1.046,0.965,���쓌,1.4,��
2016/09/23,14:30,1.105,1.827,1.319,2.014,1.369,0.590,1.044,0.963,�쓌,0.6,��
2016/09/23,14:40,1.103,1.835,1.318,2.012,1.373,0.589,1.043,0.965,���쓌,0.7,��
2016/09/23,14:50,1.105,1.834,1.319,2.013,1.369,0.589,1.046,0.965,�쓌,1.4,��
2016/09/23,15:00,1.105,1.827,1.318,2.015,1.370,0.591,1.043,0.964,�쓌,0.9,��
2016/09/23,15:10,1.104,1.828,1.318,2.015,1.370,0.590,1.042,0.967,��쓌,1.8,��
2016/09/23,15:20,1.105,1.824,1.320,2.013,1.368,0.591,1.044,0.965,��,1.1,��
2016/09/23,15:30,1.104,1.828,1.320,2.017,1.370,0.591,1.044,0.965,��쓌,0.9,��
2016/09/23,15:40,1.103,1.829,1.320,2.015,1.372,0.589,1.045,0.967,��쓌,1.0,��
2016/09/23,15:50,1.106,1.831,1.318,2.013,1.370,0.590,1.045,0.967,�쓌,1.6,��
2016/09/23,16:00,1.106,1.831,1.322,2.016,1.371,0.591,1.044,0.967,�쓌,2.1,��
2016/09/23,16:10,1.105,1.835,1.324,2.014,1.372,0.589,1.044,0.967,�쓌,1.8,��
2016/09/23,16:20,1.107,1.830,1.322,2.016,1.375,0.592,1.045,0.965,��,1.1,��
2016/09/23,16:30,1.105,1.833,1.320,2.015,1.376,0.592,1.046,0.967,��쓌,0.7,��
2016/09/23,16:40,1.108,1.834,1.322,2.015,1.373,0.590,1.044,0.970,��쓌,0.5,��
2016/09/23,16:50,1.108,1.835,1.322,2.016,1.375,0.592,1.045,0.970,��,1.1,��
2016/09/23,17:00,1.108,1.837,1.323,2.012,1.376,0.592,1.046,0.969,��,1.1,��
2016/09/23,17:10,1.108,1.837,1.322,2.013,1.378,0.591,1.046,0.971,��쓌,1.4,��
2016/09/23,17:20,1.108,1.836,1.320,2.019,1.378,0.594,1.045,0.969,��쓌,0.8,��
2016/09/23,17:30,1.109,1.835,1.321,2.016,1.379,0.592,1.045,0.969,�쐼,1.5,��
2016/09/23,17:40,1.107,1.836,1.323,2.017,1.379,0.591,1.047,0.970,�쐼,1.2,��
2016/09/23,17:50,1.106,1.838,1.323,2.016,1.379,0.593,1.045,0.968,���쐼,1.1,��
2016/09/23,18:00,1.108,1.834,1.322,2.014,1.381,0.594,1.045,0.968,���쐼,0.8,��
2016/09/23,18:10,1.105,1.836,1.323,2.017,1.379,0.595,1.047,0.970,-,CALM,��
2016/09/23,18:20,1.108,1.838,1.325,2.018,1.378,0.591,1.047,0.968,-,CALM,��
2016/09/23,18:30,1.106,1.835,1.324,2.013,1.379,0.592,1.046,0.970,-,CALM,��
2016/09/23,18:40,1.108,1.834,1.322,2.015,1.380,0.592,1.047,0.972,��쓌,1.4,��
2016/09/23,18:50,1.108,1.834,1.326,2.018,1.379,0.593,1.045,0.969,��쓌,0.9,��
2016/09/23,19:00,1.109,1.835,1.323,2.014,1.381,0.594,1.047,0.970,��,0.8,��
2016/09/23,19:10,1.110,1.836,1.323,2.017,1.380,0.592,1.046,0.968,-,CALM,��
2016/09/23,19:20,1.108,1.836,1.326,2.019,1.378,0.593,1.048,0.969,���쐼,1.2,��
2016/09/23,19:30,1.108,1.837,1.324,2.016,1.384,0.592,1.047,0.970,��,1.5,��
2016/09/23,19:40,1.110,1.836,1.325,2.021,1.380,0.593,1.046,0.970,���k��,2.4,��
2016/09/23,19:50,1.108,1.839,1.325,2.019,1.379,0.594,1.047,0.971,���k��,2.0,��
2016/09/23,20:00,1.111,1.836,1.326,2.017,1.381,0.592,1.048,0.971,���k��,1.8,��
2016/09/23,20:10,1.109,1.836,1.325,2.020,1.381,0.595,1.047,0.970,���쐼,1.6,��
2016/09/23,20:20,1.109,1.837,1.326,2.019,1.380,0.594,1.046,0.972,���k��,1.8,��
2016/09/23,20:30,1.108,1.837,1.327,2.022,1.383,0.593,1.046,0.971,���쐼,2.1,��
2016/09/23,20:40,1.105,1.835,1.326,2.021,1.383,0.595,1.048,0.970,���쐼,1.3,��
2016/09/23,20:50,1.105,1.839,1.327,2.020,1.383,0.592,1.046,0.970,�쐼,1.6,��
2016/09/23,21:00,1.107,1.840,1.326,2.020,1.380,0.595,1.049,0.971,�쐼,1.5,��
2016/09/23,21:10,1.106,1.838,1.326,2.017,1.385,0.593,1.048,0.971,�쐼,1.7,��
2016/09/23,21:20,1.104,1.835,1.326,2.020,1.382,0.596,1.049,0.972,�쓌,1.4,��
2016/09/23,21:30,1.104,1.837,1.322,2.022,1.384,0.595,1.048,0.971,��쓌,1.3,��
2016/09/23,21:40,1.105,1.840,1.326,2.016,1.385,0.593,1.048,0.971,��쓌,1.2,��
2016/09/23,21:50,1.105,1.838,1.328,2.019,1.383,0.595,1.047,0.972,��,1.5,��
2016/09/23,22:00,1.106,1.837,1.328,2.021,1.384,0.595,1.049,0.972,�쓌,1.2,��
2016/09/23,22:10,1.105,1.835,1.327,2.020,1.384,0.594,1.047,0.971,�쓌,0.5,��
2016/09/23,22:20,1.106,1.838,1.326,2.018,1.384,0.595,1.048,0.970,�쓌,0.6,��
2016/09/23,22:30,1.104,1.838,1.325,2.019,1.382,0.593,1.046,0.973,-,CALM,��
2016/09/23,22:40,1.105,1.838,1.325,2.021,1.384,0.595,1.048,0.969,-,CALM,��
2016/09/23,22:50,1.107,1.841,1.326,2.019,1.387,0.594,1.048,0.971,-,CALM,��
2016/09/23,23:00,1.105,1.842,1.325,2.016,1.384,0.594,1.047,0.973,���쓌,0.8,��
2016/09/23,23:10,1.106,1.840,1.325,2.021,1.383,0.593,1.046,0.970,-,CALM,��
2016/09/23,23:20,1.108,1.840,1.327,2.021,1.385,0.594,1.047,0.971,-,CALM,��
2016/09/23,23:30,1.107,1.840,1.327,2.020,1.385,0.594,1.047,0.973,�k�k��,1.2,�L
2016/09/23,23:40,1.107,1.840,1.328,2.020,1.385,0.594,1.046,0.971,�k�k��,1.3,��
2016/09/23,23:50,1.109,1.839,1.327,2.021,1.385,0.594,1.046,0.971,�k�k��,1.9,�L
